This is the latest recevied weather packets stored in our database for station/object AD8IZ-13. If no packets are shown the sender has not sent any weather packets the latest 10 day(s).
| Time | Temp. | Humidity | Pressure | Rain* | Wind** | Luminosity | Snow |
|---|---|---|---|---|---|---|---|
| 1777497317 | 15° C | 88% | 1009.8 hPa | 0 mm | - | 407 W/m² | - |
| 1777496721 | 15° C | 88% | 1009.7 hPa | 0 mm | - | 20 W/m² | - |
| 1777496121 | 15° C | 89% | 1009.6 hPa | 0 mm | - | 89 W/m² | - |
| 1777495519 | 15° C | 89% | 1009.6 hPa | 0 mm | - | 116 W/m² | - |
| 1777494918 | 15° C | 90% | 1009.6 hPa | 0 mm | - | 206 W/m² | - |
| 1777494318 | 15° C | 91% | 1009.6 hPa | 0 mm | - | 283 W/m² | - |
| 1777493720 | 14.44° C | 92% | 1009.6 hPa | 0 mm | - | 285 W/m² | - |
| 1777493119 | 14.44° C | 94% | 1009.6 hPa | 0 mm | - | 283 W/m² | - |
| 1777492518 | 13.89° C | 95% | 1009.5 hPa | 0 mm | - | 243 W/m² | - |
| 1777491922 | 13.89° C | 95% | 1009.7 hPa | 0 mm | - | 198 W/m² | - |
| 1777491328 | 13.33° C | 96% | 1009.7 hPa | 0 mm | - | 194 W/m² | - |
| 1777490723 | 13.89° C | 97% | 1009.6 hPa | 0.25 mm | - | 316 W/m² | - |
| 1777490130 | 13.89° C | 97% | 1009.6 hPa | 0.51 mm | - | 223 W/m² | - |
| 1777489522 | 13.33° C | 97% | 1009.6 hPa | 0.76 mm | - | 300 W/m² | - |
| 1777488930 | 13.33° C | 97% | 1009.6 hPa | 0.76 mm | - | 119 W/m² | - |
| 1777488328 | 13.33° C | 97% | 1009.7 hPa | 0.76 mm | - | 125 W/m² | - |
| 1777487729 | 13.33° C | 97% | 1009.7 hPa | 1.02 mm | - | 108 W/m² | - |
| 1777487131 | 13.89° C | 97% | 1009.6 hPa | 0.76 mm | - | 92 W/m² | - |
| 1777486529 | 13.89° C | 96% | 1009.6 hPa | 0.76 mm | - | 77 W/m² | - |
| 1777485931 | 13.89° C | 97% | 1009.5 hPa | 0.51 mm | - | 119 W/m² | - |
| 1777485329 | 13.89° C | 97% | 1009.3 hPa | 0.51 mm | - | 338 W/m² | - |
| 1777484730 | 13.89° C | 98% | 1009.4 hPa | 0.51 mm | - | 296 W/m² | - |
| 1777484130 | 13.89° C | 98% | 1009.7 hPa | 0.25 mm | - | 267 W/m² | - |
| 1777483532 | 13.89° C | 98% | 1009.8 hPa | 0.51 mm | - | 125 W/m² | - |
| 1777482930 | 13.89° C | 97% | 1009.8 hPa | 1.27 mm | - | 182 W/m² | - |
* Rain latest hour (hover to see other rain measurements)
** Current wind speed in m/s (hover to see current wind gust speed)